COSMOS 2251 DEB, 35979

Orbit data source: Space-Track

COSMOS 2251 DEB, 35979 is space debris in LEO originally from a launch on Wed, 16 Jun 1993 UTC launched from the Plesetsk Missile And Space Complex (PKMTR). The debris from Iridium 33, an American commercial communications satellite, has been tracked extensively since its accidental collision with the defunct Russian satellite Cosmos 2251 in 2009. This event, occurring at high speed in low Earth orbit (LEO), generated thousands of pieces of space debris, significantly increasing the risk of further collisions. The Iridium 33 debris cloud has impacted space traffic management and orbital debris mitigation strategies, making it a subject of ongoing study in space situational awareness.

Loading next visibility...
Identifier
35979, 1993-036AVV
Orbit
LEO
Country
Flag of CISCIS
Related business
Manufacturer
Unknown
Mission
Spacecraft
Bus & Motor
Unknown
Mass
Unknown
Launch date (UTC)
1993-06-16 (32 years ago)
Launch vehicle
Unknown
Launch site
Plesetsk Missile And Space Complex (PKMTR)
Object type
Payload
Rocket body
Debris
Shape & HBR
Unknown shape, 0.1 m
Radar Cross Section
Small (<0.1 m²)

Expand to show TLE details & history
Last TLE update: 9 hours ago

TLE from 9 hours ago
0 COSMOS 2251 DEB
1 35979U 93036AVV 25302.33655551  .00006102  00000-0  91161-3 0  9999
2 35979  74.0110 325.1930 0058370 109.1987 263.8141 14.73802710879797
Epoch: 2025-10-29T08:04Z
TLE epoch observation values (Epoch: 2025-10-29T08:04:38.396Z)
Latitude
11.82513°
Longitude
169.54261°
Altitude
655.504 km
Speed
7.528 km/s
True Right ascension
21h 54m 27s
True Declination
11° 45' 19"
Sunlit
Object was in full shadow at epoch
Visualization orbit readout
Latitude
Unknown
Longitude
Unknown
Altitude
Unknown
Speed
Unknown
Apparent Right ascension
Unknown
Apparent Declination
Unknown
Sunlit
N/A
Visualization observer readout
Local Sidereal Time
12:36:20
Azimuth
Unknown
Elevation
Unknown
Doppler factor
Unknown
Orbital elements
Apogee altitude
687.542 km
Perigee altitude
605.536 km
Semi-major axis
7,024.676 km
Eccentricity
0.00584
Inclination
74.011°
RAAN
325.193°
Arg. of periapsis
109.1987°
True anomaly
263.14966°
Mean anomaly
263.8141°
Eccentric anomaly
263.48183°
Mean motion
3.68641 °/min
Orbital period
97.66 mins
BSTAR
0.00091161

Documentation

Showing up to 5 results
|